Weather in Oktyabrsky

Belarus     52°38′49″N   28°52′58″E
temp.,
°C
wind,
m/s
gust,
m/s
humid.,
%
clouds,
%
prec.,
mm/h
press.,
hPa
HPBL,
m
22 january, fri
fri2200:00+1ssw4119130 0.0 1011344
03:00+1s4119263 0.0 1011360
06:00+1s3109399 0.0 1009347
09:00+1s31094100 0.0 1009308
12:00+2ssw3109599 0.0 1009434
15:00+3ssw3109570 0.0 1008433
18:00+2s4119352 0.0 1007322
21:00+3s4129176 0.0 1006423
23 january, sat
sat2300:00+3s41387100 0.0 1006452
03:00+2ssw4128874 0.0 1006319
06:00+2s399287 0.0 1006265
09:00+2sse389693 0.0 1007231
12:00+2sse3998100 0.0 1007288
15:00+2sse3897100 0.1 1007265
18:00+1se399487 0.0 1007251
21:000se4109379 0.0 1006266
24 january, sun
sun2400:000se4119474 0.0 1006290
03:000se5109781 0.0 1005363
06:00+1se51097100 0.0 1003425
09:00+3sse51297100 0.0 1003570
12:00+3se51398100 0.3 1001459
15:00+4se61497100 1.8 998565
18:00+4se61596100 1.6 996610
21:00+4se61595100 2.8 995615
25 january, mon
mon2500:00+4ssw71494100 1.3 995654
03:00+3ssw61396100 2.9 999771
06:00+1ssw41092100 0.2 1001401
09:00−1s249676 0.2 1004114
12:00+1s129155 0.0 1005199
15:00+2e239277 0.0 1004242
18:00+1ene369797 0.0 1003184
21:00+2ene499798 0.0 1001341
26 january, tue
tue2600:00+3ene61396100 4.0 997528
03:00+4e61495100 7.7 994611
06:00+4e61494100 1.3 991598
09:00+3ese51294100 1.9 990552
12:00+2ese51086100 0.1 990668
15:00+1ese368393 0.2 990637
18:00−1n239899 0.1 99199
21:000wnw2498100 0.5 992211